Find Starlink 35149

NORAD ID: 65512 Int'l Des: 2025-198 Owner: SPXS Country: US Constellation: starlink operational
LEOCIRCULAR

当前视图

正在加载3D地球...

About Starlink 35149

Starlink 35149 (NORAD 65512) is a starlink constellation satellite (v2 mini) launched Sep 5, 2025 by SPXS of US. It operates in LEO, CIRCULAR orbit with a mass of 575.00 kg.

关于 Starlink 35149

正在加载描述...

即将过境

Passes for default location (London). Set your location on the main map for personalized predictions.

高度历史

Loading altitude history...

两行轨道根数

1 65512U 25198W 26194.89014984 .00018436 00000-0 55538-3 0 9990
2 65512 53.1592 42.5554 0001397 87.0451 273.0711 15.34402984 47974
Epoch: Jul 13, 2026 • Age: 19 hours

当前状态

高度 469.2 km
远地点 / 近地点 N/A
速度 7.63 km/s
星下点 -21.86°S, 151.04°W
发射日期 Sep 5, 2025
运行时间 0.8 years
类型 internet

技术详情

分类 Payload
质量 575.00 kg
干质量 530.00 kg
总质量 575.00 kg
长度 0.30 m
直径 4.10 m
跨度 29.00 m
形状 Box + pan
制造商 SPXS
平台类型 Starlink V2MO
阶段状态 In Orbit
所有者/国家 SPXS/US

Most Searched